Flag for Kazakhstan Weather past 2 weeks in Qyzylorda, Kazakhstan

Now
70 °F

Passing clouds.


Feels Like: 70 °F
Forecast: 70 / 89 °F
Wind: 6 mph from Northeast

Location: Kzyl-Orda

Current Time: May 6, 2015 at 9:24:03 AM

Latest Report: May 6, 2015 at 9:00 AM


Visibility: N/A

Pressure: 29.83 "Hg

Humidity: 50%

Dew point: 50 °F

Location of QyzylordaLocation

Historic Weather in Qyzylorda — Graph

°F

Qyzylorda temperature yesterday

Maximum temperature yesterday: 84 °F (at 3:30 PM)
Minimum temperature yesterday: 59 °F (at 5:30 AM)
Average temperature yesterday: 72 °F

Past Weeks' High & Low Weather Summary

 TemperatureHumidityPressure
High91 °F (Apr 22, 3:30 PM)100% (Apr 26, 8:30 AM)30.36 "Hg (Apr 26, 8:30 AM)
Low43 °F (Apr 28, 7:00 AM)11% (Apr 22, 2:30 PM)29.62 "Hg (Apr 22, 11:00 PM)
Average69 °F40%29.94 "Hg
* Reported Apr 21 8:00 AM — May 6 8:00 AM, Qyzylorda, Weather by CustomWeather, © 2015

Note: Actual official high and low records may vary slightly from our data, if they occured in-between our weather recording intervals... More about our weather records

Advertising

Qyzylorda weather history for previous 24 hours

 ConditionsComfort  
Time TempWeatherWind HumidityBarometerVisibility
8:00 AM
Wed, May 6
64 °FSunny.3 mph60%29.83 "Hg10 mi
7:30 AM63 °FSunny.3 mph64%29.83 "Hg10 mi
7:00 AM61 °FClear.3 mph68%29.83 "Hg10 mi
6:30 AM61 °FClear.3 mph68%29.80 "Hg10 mi
6:00 AM63 °FClear.6 mph64%29.80 "Hg10 mi
5:00 AM61 °FClear.3 mph72%29.80 "Hg10 mi
4:00 AM63 °FClear.6 mph68%29.80 "Hg10 mi
3:00 AM64 °FClear.3 mph64%29.80 "Hg10 mi
2:00 AM64 °FClear.1 mph68%29.80 "Hg10 mi
1:00 AM64 °FClear.3 mph68%29.80 "Hg10 mi
12:30 AM64 °FClear.3 mph68%29.80 "Hg10 mi
12:00 AM66 °FClear.3 mph60%29.80 "Hg10 mi
11:30 PM
Tue, May 5
68 °FClear.1 mph56%29.80 "Hg10 mi
11:00 PM68 °FClear.No wind56%29.80 "Hg10 mi
10:30 PM70 °FClear.No wind53%29.80 "Hg10 mi
10:00 PM73 °FClear.No wind44%29.80 "Hg10 mi
9:30 PM72 °FSunny.No wind47%29.80 "Hg10 mi
9:00 PM77 °FSunny.3 mph36%29.80 "Hg10 mi
8:30 PM79 °FSunny.3 mph34%29.80 "Hg10 mi
8:00 PM82 °FSunny.6 mph28%29.80 "Hg10 mi
7:30 PM82 °FSunny.8 mph28%29.80 "Hg10 mi
7:00 PM82 °FSunny.8 mph26%29.80 "Hg10 mi
6:30 PM82 °FSunny.8 mph26%29.80 "Hg10 mi
6:00 PM84 °FSunny.13 mph25%29.80 "Hg10 mi
5:30 PM84 °FPassing clouds.10 mph25%29.80 "HgN/A
5:00 PM82 °FSunny.13 mph25%29.77 "Hg10 mi
4:30 PM84 °FSunny.13 mph25%29.77 "Hg10 mi
3:30 PM84 °FSunny.13 mph25%29.77 "Hg10 mi
3:00 PM82 °FPassing clouds.13 mph26%29.77 "HgN/A
2:30 PM82 °FPassing clouds.13 mph25%29.77 "HgN/A
2:00 PM81 °FPassing clouds.15 mph28%29.77 "HgN/A
1:30 PM81 °FSunny.17 mph28%29.77 "Hg10 mi
1:00 PM79 °FSunny.15 mph30%29.77 "Hg10 mi
12:30 PM77 °FSunny.15 mph32%29.77 "Hg10 mi
12:00 PM77 °FPassing clouds.15 mph32%29.77 "HgN/A
11:30 AM75 °FSunny.17 mph34%29.77 "Hg10 mi
11:00 AM73 °FSunny.17 mph41%29.74 "Hg10 mi
10:30 AM72 °FSunny.15 mph44%29.74 "Hg10 mi
10:00 AM68 °FSunny.17 mph56%29.74 "Hg10 mi
9:30 AM66 °FSunny.17 mph60%29.74 "Hg10 mi
9:00 AM64 °FSunny.17 mph68%29.71 "Hg10 mi
Weather by CustomWeather, © 2015

See weather overviewHow to use our weather pages